DECAYED

STARLINK-3275, 50188 (Decayed)

Orbit data source: Space-Track

STARLINK-3275, 50188 was a payload satellite owned by SpaceX/Seattle (US) in LEO that was launched on Sat, 18 Dec 2021 UTC via an FALCON 9 launch vehicle from the Air Force Western Test Range (AFWTR). Payload-class satellites include a variety of spacecraft equipped with specific instruments for various scientific and technological missions. These include communications satellites like Starlink; space stations such as the ISS; scientific satellites like the Hubble; Earth observation satellites from companies like Planet Labs, Umbra, and HawkEye 360; GPS; miniature CubeSats for education and research; and military/defense satellites.

Not visible in the next 10 days
Identifier
50188, 2021-125AJ
Orbit
Decayed
Country
Flag of USUS
Related business
Manufacturer
SpaceX/Seattle
Mission
Decayed Commercial Communications
Bus & Motor
STARLINK, Unknown motor
Mass
290 kg wet, ~270 kg dry
Launch date (UTC)
2021-12-18 (5 years ago)
Launch vehicle
FALCON 9
Launch site
Air Force Western Test Range (AFWTR)
Object type
Payload
Rocket body
Debris
Shape & HBR
Box + 1 Pan, 10.1 m
Radar Cross Section
13.562 m², Large (>1 m²)

Expand to show TLE details & history
Last TLE update: 10 months ago

TLE from 10 months ago
0 STARLINK-3275
1 50188U 21125AJ  25225.41399707  .24904587  12526-4  67514-3 0  9994
2 50188  53.1718 333.9721 0006473 286.2549 151.2503 16.45228929203890
Epoch: 2025-08-13T09:56Z
TLE epoch observation values (Epoch: 2025-08-13T09:56:09.346Z)
Latitude
51.56321°
Longitude
-67.41618°
Altitude
161.762 km
Speed
7.813 km/s
True Right ascension
02h 54m 51s
True Declination
51° 22' 49"
Sunlit
Object was in daylight at epoch
Visualization orbit readout
Latitude
Unknown
Longitude
Unknown
Altitude
Unknown
Speed
Unknown
Apparent Right ascension
Unknown
Apparent Declination
Unknown
Sunlit
N/A
Visualization observer readout
Local Sidereal Time
14:02:26
Azimuth
Unknown
Elevation
Unknown
Doppler factor
Unknown
Orbital elements
Apogee altitude
156.423 km
Perigee altitude
147.969 km
Semi-major axis
6,530.333 km
Eccentricity
0.00065
Inclination
53.1718°
RAAN
333.9721°
Arg. of periapsis
286.2549°
True anomaly
151.28595°
Mean anomaly
151.2503°
Eccentric anomaly
151.26813°
Mean motion
4.11282 °/min
Orbital period
87.53 mins
BSTAR
0.00067514
Loading maneuver chart data...
Computing Atmospheric mass density...

Documentation

Showing up to 5 results
|